Location: Peebles
(55.6412°N, 3.1714°W)
Time: 23:15:17
(UTC+00:00)

RS-15 - Pass Details

Date: 04 December 2023
Orbit: 1893 x 2151 km, 64.8° (Epoch: 01 March)

Event Time Altitude Azimuth Distance (km) Brightness Sun altitude
Rises 21:55:07 0° 224° (SW) 5,647 10.5 -49.1°
Reaches altitude 10° 21:58:34 10° 225° (SW) 4,631 10.0 -49.5°
Enters shadow 22:00:07 15° 225° (SW) 4,180 9.7 -49.7°
Exits shadow 22:23:18 - 50° (NE) 4,717 10.0 -51.9°
Sets 22:25:40 0° 50° (NE) 5,422 10.4 -52.1°
